Regional Weather Roundup
Issued by NWS Midland/Odessa, TX

Skip options and go directly to product.
Home | Oldest Version | Previous Version | Current Version | All | Text Only | Save Text | Print | Product List | Glossary On

Skip product version selection by date and time.   
547
ASUS44 KMAF 231510
RWRMAF
MIDLAND AREA WEATHER ROUNDUP
NATIONAL WEATHER SERVICE MIDLAND TX
1000 AM CDT WED APR 23 2014

...IN SOUTHWEST TEXAS AND SOUTHEAST NEW MEXICO...

CITY           SKY/WX    TMP DP  RH WIND       PRES   REMARKS
ALPINE         SUNNY     74  45  35 S23G32    29.99F
ANDREWS        FAIR      71  54  54 S16G22    29.87S
ARTESIA        CLOUDY    66  48  52 SE16      29.85S
BIG SPRING     CLOUDY    77  59  54 S24G33    29.89S
CARLSBAD       CLOUDY    70  49  47 S9        29.84R
DRYDEN           N/A     77  57  50 E6        29.87S
FORT STOCKTON  SUNNY     75  52  44 SE9       29.86R
GUAD PASS      PTSUNNY   63  41  44 SW15      29.98R
HOBBS          SUNNY     68  50  52 S18G24    29.87S
MARFA          SUNNY     72  45  37 S15G22    30.00S
MIDLAND AIRPK  MOSUNNY   72  57  59 S16       29.87S
MIDLAND INTL   MOSUNNY   73  57  57 S21G29    29.86F
ODESSA           N/A    N/A N/A N/A MISG      29.87S
PECOS          SUNNY     73  52  48 CALM      29.84S
PRESIDIO       FAIR      81  36  20 SE5       29.88S
SEMINOLE       MOSUNNY   71  52  50 S20G25    29.87S
SNYDER         PTSUNNY   70  59  67 S16G22    29.88F
WINK           MOSUNNY   74  53  48 SE17      29.83S
$$
...OTHER STATIONS IN TEXAS...

CITY           SKY/WX    TMP DP  RH WIND       PRES   REMARKS
ABILENE        LGT RAIN  75  60  59 S18G28    29.88F
AMARILLO       CLOUDY    68  49  50 S30G38    29.83F
AUSTIN         MOSUNNY   74  66  76 S10       29.94S
BROWNSVILLE    MOSUNNY   78  69  73 S13       29.93S
CORPUS CHRISTI PTSUNNY   78  65  63 S14       29.94R
DALLAS FTW     MOSUNNY   76  61  59 S13       29.93R
DEL RIO        MOSUNNY   76  66  71 SE17      29.86F
EL PASO        PTSUNNY   73  24  16 W14       29.90R
HOUSTON INT    MOSUNNY   76  67  73 S5        29.97R
LUBBOCK        CLOUDY    69  53  56 S23G35    29.85F
SAN ANGELO     MOSUNNY   76  61  59 S15G24    29.87F
SAN ANTONIO    MOSUNNY   75  65  70 SE12      29.93F
WACO           SUNNY     75  65  70 S7        29.93S
WICHITA FALLS  NOT AVBL
$$
...OTHER LOCATIONS IN NEW MEXICO...

CITY           SKY/WX    TMP DP  RH WIND       PRES   REMARKS
ALAMAGORDO     MOSUNNY   73  27  17 S9G20     29.91R
ALBUQUERQUE    MOSUNNY   64  27  24 SW14      29.89S
CANNON AFB     CLOUDY    65  48  53 S13       29.84F
CLOVIS         CLOUDY    64  48  55 S23G29    29.87F
HOLLOMAN AFB   PTSUNNY   73  27  17 SW13      29.89R
ROSWELL        CLOUDY    68  48  48 S16       29.83S
RUIDOSO        MOSUNNY   59  23  25 SW18      30.00S
SANTA FE       SUNNY     61  27  27 VRB7      29.90R
TRUTH OR CONSE PTSUNNY   66  26  22 SE3       29.89S
TUCUMCARI      CLOUDY    69  46  43 SW28      29.77F
$$

USA.gov is the U.S. government's official web portal to all federal, state and local government web resources and services.